Location: Carlingford
(46.7848°N, 67.7474°W)
Time: 06:18:12
(UTC+00:00)

Envisat - Pass Details

Date: 09 December 2022
Orbit: 763 x 765 km, 98.2° (Epoch: 27 January)

Event Time Altitude Azimuth Distance (km) Brightness Sun altitude
Rises 08:55:43 0° 13° (NNE) 3,244 6.4 -31.2°
Reaches altitude 10° 08:58:02 10° 13° (NNE) 2,313 5.6 -30.8°
Enters shadow 08:58:52 15° 12° (NNE) 1,981 5.2 -30.7°
